TimeCST,TemperatureF,Dew PointF,Humidity,Sea Level PressureIn,VisibilityMPH,Wind Direction,Wind SpeedMPH,Gust SpeedMPH,PrecipitationIn,Events,Conditions,WindDirDegrees,DateUTC
12:53 AM,37.9,33.1,83,30.17,10.0,Calm,Calm,-,N/A,,Clear,0,2013-03-04 06:53:00
1:53 AM,39.0,35.1,86,30.16,10.0,Calm,Calm,-,N/A,,Clear,0,2013-03-04 07:53:00
2:53 AM,37.9,34.0,86,30.16,10.0,Calm,Calm,-,N/A,,Clear,0,2013-03-04 08:53:00
3:53 AM,39.0,34.0,82,30.15,10.0,Calm,Calm,-,N/A,,Clear,0,2013-03-04 09:53:00
4:53 AM,37.9,35.1,89,30.15,9.0,Calm,Calm,-,N/A,,Clear,0,2013-03-04 10:53:00
5:53 AM,37.9,35.1,89,30.16,9.0,Calm,Calm,-,N/A,,Clear,0,2013-03-04 11:53:00
6:53 AM,41.0,37.9,89,30.18,7.0,Calm,Calm,-,N/A,,Clear,0,2013-03-04 12:53:00
7:53 AM,48.9,36.0,61,30.20,9.0,ENE,4.6,-,N/A,,Clear,70,2013-03-04 13:53:00
8:53 AM,53.1,33.1,47,30.22,10.0,ESE,5.8,-,N/A,,Clear,120,2013-03-04 14:53:00
9:53 AM,57.0,37.9,49,30.21,10.0,SE,9.2,-,N/A,,Clear,130,2013-03-04 15:53:00
10:53 AM,60.1,41.0,49,30.20,10.0,South,10.4,-,N/A,,Clear,180,2013-03-04 16:53:00
11:53 AM,61.0,41.0,48,30.19,10.0,SSE,10.4,-,N/A,,Clear,150,2013-03-04 17:53:00
12:53 PM,62.1,44.1,52,30.15,10.0,SSE,10.4,19.6,N/A,,Clear,150,2013-03-04 18:53:00
1:53 PM,64.0,46.0,52,30.12,10.0,SSE,13.8,19.6,N/A,,Clear,150,2013-03-04 19:53:00
2:53 PM,63.0,46.9,56,30.12,10.0,SSE,15.0,-,N/A,,Mostly Cloudy,160,2013-03-04 20:53:00
3:53 PM,63.0,48.0,58,30.10,10.0,SSE,15.0,-,N/A,,Overcast,150,2013-03-04 21:53:00
4:53 PM,60.1,48.9,67,30.09,10.0,SSE,11.5,-,N/A,,Partly Cloudy,150,2013-03-04 22:53:00
5:53 PM,59.0,50.0,72,30.09,10.0,SE,8.1,-,N/A,,Overcast,140,2013-03-04 23:53:00
6:53 PM,59.0,51.1,75,30.08,10.0,SSE,11.5,-,N/A,,Overcast,150,2013-03-05 00:53:00
7:53 PM,59.0,53.1,81,30.07,10.0,SSE,8.1,-,N/A,,Mostly Cloudy,160,2013-03-05 01:53:00
8:53 PM,61.0,54.0,78,30.04,10.0,SSE,15.0,-,N/A,,Scattered Clouds,160,2013-03-05 02:53:00
9:53 PM,61.0,55.0,81,30.05,10.0,South,8.1,-,N/A,,Overcast,170,2013-03-05 03:53:00
10:53 PM,59.0,55.0,87,30.04,10.0,South,8.1,-,N/A,,Scattered Clouds,180,2013-03-05 04:53:00
11:53 PM,60.1,55.0,83,30.03,10.0,South,8.1,-,N/A,,Mostly Cloudy,190,2013-03-05 05:53:00